Weather in Khantayskoye Ozero

Russia / Krasnoyarsk Krai     68°13′11″N   89°59′13″E
temp.,
°C
wind,
m/s
gust,
m/s
humid.,
%
clouds,
%
prec.,
mm/h
press.,
hPa
HPBL,
m
18 may, tue
tue1801:00−12ssw229341 0.1 102010
04:00−12ssw119699 0.0 102018
07:00−9nnw109594 0.1 1020114
10:00−7nw119193 0.1 1020305
13:00−5nw228482 0.1 1020526
16:00−4wnw227874 0.0 1020638
19:00−4wnw338662 0.1 1020337
22:00−9sw22957 0.0 102010
19 may, wed
wed1901:00−12ssw2294100 0.0 102112
04:00−11ssw1193100 0.0 102141
07:00−8n119359 0.0 1021107
10:00−6nnw118625 0.0 1021251
13:00−4nw11785 0.0 1022370
16:00−3wnw11735 0.0 1022394
19:00−3w22835 0.0 1022140
22:00−8sw22945 0.0 102310
20 may, thu
thu2001:00−11sse22915 0.0 102311
04:00−11sse11905 0.0 102310
07:00−6ese22835 0.0 1023118
10:00−2ese22755 0.0 1022322
13:00−1ene11805 0.0 1021248
16:000ene128496 0.0 1021183
19:000e1185100 0.0 102037
22:00−2se3385100 0.0 101928
21 may, fri
fri2101:00−3se3385100 0.0 101939
04:00−3se4585100 0.0 101777
07:00−1se3585100 0.0 1016182
10:00+1se3591100 0.0 1015280
13:00+1ese349699 0.3 1014243
16:00+1ese3597100 0.2 1012243
19:00+1ese3498100 0.3 1011117
22:00+1ese349899 0.1 1011107
22 may, sat
sat2201:00−1ese3394100 0.2 101042
04:00−1ese239585 0.1 101045
07:000ese229581 0.3 101078
10:00+2ese129386 0.0 1010151
13:00+2nnw119174 0.1 1010210
16:00+2nw2298100 0.0 1011115
19:00+1wnw11100100 0.1 101265
22:00+1sw0099100 0.0 101219